User: anonymous   Login
Location: Unspecified
(0.0000°N, 0.0000°E)
Time: 01:56:43
(UTC+00:00)
Language:

P83-1 Hilat - Orbit

View from above orbital plane
View from above orbital plane
View from above satellite
View from above satellite

Ground track
Ground track

The orbit data is extracted from the following two-line orbital elements,

1 14154U 83063A   23088.32495765  .00000921  00000-0  30384-3 0  9990
2 14154  82.0275 172.7713 0039154 248.7441 175.8844 14.36907321 78874
Epoch (UTC): 29 March 2023 07:47:56
Eccentricity: 0.0039154
inclination: 82.0275°
perigee height: 741 km
apogee height: 797 km
right ascension of ascending node: 172.7713°
argument of perigee: 248.7441°
revolutions per day: 14.36907321
mean anomaly at epoch: 175.8844°
orbit number at epoch: 7887

The dashed part of the orbit path shows where the satellite is in the earth's shadow,  

DLR